Tracking 26321 objects as of 27-Nov-2022
HD Live streaming from Space Station
objects crossing your sky now

STARLINK-4398

Track STARLINK-4398 now!
10-day predictions
STARLINK-4398 is classified as:


NORAD ID: 53466
Int'l Code: 2022-099B
Perigee: 569.3 km
Apogee: 570.9 km
Inclination: 97.7 °
Period: 95.9 minutes
Semi major axis: 6941 km
RCS: Unknown
Launch date: August 12, 2022
Source: United States (US)
Launch site: AIR FORCE WESTERN TEST RANGE (AFWTR)
aabbcc
Your satellite tracking list
Your tracking list is empty




NASA's NSSDC Master Catalog

Two Line Element Set (TLE):
1 53466U 22099B   22330.78293664  .00001558  00000-0  12579-3 0  9997
2 53466  97.6536  89.7584 0001158 337.4859  22.6315 15.01273346 16106
Source of the keplerian elements: AFSPC